Weather History for Denver, CO

Change the Weather History Date:

Sunday, February 17, 2013

  Actual Average (KDEN) Record (KDEN)
Temperature  
Mean Temperature 46 °F 33 °F  
Max Temperature 64 °F 46 °F 72 °F (1970)
Min Temperature 28 °F 19 °F -10 °F (2006)
Degree Days  
Heating Degree Days 19 32  
Month to date heating degree days 570  
Since 1 July heating degree days 4101  
Cooling Degree Days 0 0  
Month to date cooling degree days 0  
Year to date cooling degree days 0  
Moisture  
Dew Point 10 °F    
Average Humidity 35    
Maximum Humidity 80    
Minimum Humidity 6    
Precipitation  
Precipitation 0.00 in 0.01 in 0.72 in (1962)
Month to date precipitation 0.21  
Year to date precipitation 0.62  
Snow  
Snow 0.00 in - - ()
Month to date snowfall  
Since 1 July snowfall  
Snow Depth -    
Sea Level Pressure  
Sea Level Pressure 29.79 in    
Wind  
Wind Speed 13 mph (SSW)    
Max Wind Speed 29 mph    
Max Gust Speed 33 mph    
Visibility 11 miles    
Events      
T = Trace of Precipitation, MM = Missing Value Source: NWS Daily Summary

Daily Weather History Graph

Daily Weather History Graph

Search for Another Location

Airport:

Trip Planner

Search our weather history database for the weather conditions in past years. The results will help you decide how hot, cold, wet, or windy it might be!

Date:

Astronomy

Feb. 17, 2013 Rise Set
Actual Time 6:47 AM MST 5:37 PM MST
Civil Twilight 6:20 AM MST 6:04 PM MST
Nautical Twilight 5:48 AM MST 6:36 PM MST
Astronomical Twilight 5:17 AM MST 7:07 PM MST
Moon 10:43 AM MST (2/17) 12:34 AM MST (2/17)
Length of Visible Light 11h 44m
Length of Day
10h 49m
Waxing Crescent, 49% of the Moon is Illuminated
Feb 17
Waxing Crescent
Feb 17
First Quarter
Feb 25
Full
Mar 4
Last Quarter
Mar 11
New

Hourly Weather History & Observations

Time (MST) Temp. Windchill Dew Point Humidity Pressure Visibility Wind Dir Wind Speed Gust Speed Precip Events Conditions
12:08 AM 30.2 °F 21.9 °F 14.0 °F 51% 29.96 in 10.0 mi South 9.2 mph - N/A   Clear
12:27 AM 28.4 °F 20.4 °F 14.0 °F 55% 29.96 in 10.0 mi South 8.1 mph - N/A   Clear
12:47 AM 28.4 °F 19.7 °F 14.0 °F 55% 29.96 in 10.0 mi South 9.2 mph - N/A   Clear
1:08 AM 30.2 °F 21.3 °F 14.0 °F 51% 29.95 in 10.0 mi South 10.4 mph - N/A   Clear
1:28 AM 30.2 °F 20.8 °F 14.0 °F 51% 29.94 in 10.0 mi South 11.5 mph - N/A   Clear
1:47 AM 32.0 °F 24.2 °F 12.2 °F 44% 29.94 in 10.0 mi South 9.2 mph - N/A   Clear
2:08 AM 35.6 °F 26.2 °F 10.4 °F 35% 29.93 in 10.0 mi SSW 15.0 mph - N/A   Clear
2:28 AM 37.4 °F 29.8 °F 10.4 °F 33% 29.93 in 10.0 mi SSW 11.5 mph - N/A   Clear
2:48 AM 37.4 °F 30.3 °F 10.4 °F 33% 29.93 in 10.0 mi SSW 10.4 mph - N/A   Clear
3:07 AM 37.4 °F 30.8 °F 8.6 °F 30% 29.91 in 10.0 mi SSW 9.2 mph - N/A   Clear
3:28 AM 37.4 °F 31.4 °F 8.6 °F 30% 29.90 in 10.0 mi SSW 8.1 mph - N/A   Clear
3:48 AM 37.4 °F 34.9 °F 8.6 °F 30% 29.89 in 10.0 mi SSW 3.5 mph - N/A   Clear
4:08 AM 35.6 °F 29.2 °F 8.6 °F 33% 29.89 in 10.0 mi SSW 8.1 mph - N/A   Clear
4:28 AM 37.4 °F 29.8 °F 8.6 °F 30% 29.87 in 10.0 mi SW 11.5 mph - N/A   Clear
4:48 AM 39.2 °F 31.2 °F 8.6 °F 28% 29.86 in 10.0 mi SSW 13.8 mph - N/A   Clear
5:08 AM 37.4 °F 28.5 °F 8.6 °F 30% 29.86 in 10.0 mi SSW 15.0 mph - N/A   Clear
5:28 AM 39.2 °F 29.8 °F 8.6 °F 28% 29.85 in 10.0 mi SSW 18.4 mph - N/A   Clear
5:48 AM 37.4 °F 27.8 °F 6.8 °F 28% 29.84 in 10.0 mi SSW 17.3 mph - N/A   Clear
6:08 AM 41.0 °F 31.9 °F 5.0 °F 23% 29.83 in 10.0 mi SSW 19.6 mph - N/A   Clear
6:28 AM 39.2 °F 31.2 °F 5.0 °F 24% 29.83 in 10.0 mi SSW 13.8 mph - N/A   Clear
6:47 AM 39.2 °F 30.5 °F 3.2 °F 22% 29.81 in 50.0 mi SSW 16.1 mph - N/A   Mostly Cloudy
6:48 AM 41.0 °F 33.1 °F 5.0 °F 23% 29.82 in 10.0 mi SSW 15.0 mph - N/A   Clear
7:47 AM 42.8 °F 35.4 °F 1.4 °F 18% 29.80 in 50.0 mi SSW 15.0 mph - N/A   Mostly Cloudy
8:52 AM 44.6 °F 39.2 °F 1.4 °F 17% 29.78 in 50.0 mi South 10.4 mph - N/A   Mostly Cloudy
9:50 AM 53.6 °F - 1.4 °F 12% 29.75 in 50.0 mi South 13.8 mph 23.0 mph N/A   Mostly Cloudy
10:50 AM 57.2 °F - -2.2 °F 9% 29.72 in 50.0 mi South 16.1 mph 21.9 mph N/A   Mostly Cloudy
11:50 AM 59.0 °F - -5.8 °F 7% 29.68 in 50.0 mi South 13.8 mph 21.9 mph N/A   Mostly Cloudy
12:50 PM 64.4 °F - -4.0 °F 6% 29.63 in 50.0 mi SW 15.0 mph 23.0 mph N/A   Mostly Cloudy
1:50 PM 62.6 °F - -2.2 °F 7% 29.59 in 50.0 mi WNW 6.9 mph - N/A   Mostly Cloudy
4:55 PM 57.2 °F - 1.4 °F 10% 29.55 in 50.0 mi NNW 20.7 mph 28.8 mph N/A   Mostly Cloudy
5:48 PM 48.2 °F - -0.4 °F 13% 29.57 in 50.0 mi North 12.7 mph - N/A   Mostly Cloudy
6:48 PM 41.0 °F 34.3 °F 1.4 °F 19% 29.60 in 20.0 mi North 11.5 mph - N/A   Mostly Cloudy
7:48 PM 39.2 °F 28.7 °F 17.6 °F 42% 29.64 in 20.0 mi NE 23.0 mph 28.8 mph N/A   Scattered Clouds
9:07 PM 35.6 °F 23.7 °F 17.6 °F 48% 29.68 in 10.0 mi NNE 24.2 mph 31.1 mph N/A   Clear
9:27 PM 33.8 °F 22.2 °F 19.4 °F 56% 29.69 in 10.0 mi NNE 20.7 mph 27.6 mph N/A   Clear
9:48 PM 33.8 °F 20.3 °F 17.6 °F 52% 29.68 in 10.0 mi North 28.8 mph 32.2 mph N/A   Clear
10:08 PM 35.6 °F 23.2 °F 15.8 °F 44% 29.70 in 10.0 mi North 26.5 mph 32.2 mph N/A   Clear
10:28 PM 33.8 °F 23.2 °F 19.4 °F 56% 29.70 in 10.0 mi NNE 17.3 mph 26.5 mph N/A   Mostly Cloudy
10:48 PM 32.0 °F 19.2 °F 26.6 °F 80% 29.71 in 10.0 mi NNE 23.0 mph 31.1 mph N/A   Mostly Cloudy
11:08 PM 32.0 °F 19.2 °F 24.8 °F 75% 29.73 in 10.0 mi NNE 23.0 mph 33.4 mph N/A   Mostly Cloudy
11:27 PM 32.0 °F 21.2 °F 24.8 °F 75% 29.74 in 10.0 mi NNE 16.1 mph 20.7 mph N/A   Scattered Clouds
11:48 PM 30.2 °F 18.1 °F 23.0 °F 75% 29.75 in 10.0 mi NE 18.4 mph 24.2 mph N/A   Scattered Clouds